Wind_Speed
22 22 23 23 23 24 24 24 24 24 25 25 25 26 26 27 27 28 28 28 28 28 29 30 31 31 32 32 33 33 33 33 34 35 35 36 36 36 36 36 36 36 36
23 23 24 24 25 26 26 26 26 26 26 26 27 27 28 28 29 29 29 30 30 30 30 30 31 31 32 32 33 33 34 34 35 35 35 36 36 36 36 37 37 37 37
24 25 25 26 27 27 28 28 28 28 28 28 29 29 30 30 30 31 31 31 31 31 31 32 31 31 32 33 33 33 34 35 35 35 36 36 36 37 37 37 37 37 38
26 26 27 28 28 29 29 30 30 30 30 30 30 30 31 31 32 32 32 32 33 33 33 33 33 33 33 33 34 34 34 35 36 36 36 37 37 37 37 37 37 38 38
27 28 29 29 29 30 30 31 31 31 32 32 32 32 32 33 33 34 34 34 34 34 33 33 33 33 33 34 34 35 35 36 37 37 38 39 39 38 38 38 38 39 39
28 28 29 29 29 30 31 32 32 32 33 33 33 33 33 34 34 35 35 35 34 34 34 34 35 35 35 35 35 36 37 38 38 38 38 38 38 38 38 38 39 40 40
30 30 30 30 30 31 32 32 33 34 34 34 34 34 34 34 34 35 35 35 35 35 35 35 36 36 37 37 37 38 38 39 40 39 40 40 39 39 39 39 38 38 39
33 31 31 32 32 33 33 33 33 34 34 35 35 35 34 34 35 35 35 35 35 35 35 36 37 38 38 38 38 39 39 39 40 40 41 40 40 40 40 39 39 39 39
34 33 33 33 34 34 34 34 34 34 35 35 35 35 36 35 36 36 36 36 36 36 36 36 37 37 37 38 39 39 41 40 40 40 41 40 40 40 41 40 39 38 38
35 35 34 34 34 35 35 35 35 35 35 35 35 36 36 36 36 35 36 36 36 37 37 37 37 37 39 39 40 40 41 41 41 41 41 40 40 40 40 40 39 39 39
36 36 36 36 36 35 35 35 36 36 36 35 35 35 36 36 36 36 35 36 37 37 38 38 38 39 39 40 40 41 41 41 41 41 41 41 41 41 41 41 41 40 39
38 37 36 36 35 35 34 34 36 37 37 36 36 36 36 36 36 36 36 36 37 38 38 39 40 40 41 41 41 42 42 42 41 42 42 42 42 42 43 42 42 41 41
38 38 37 36 36 35 35 35 36 37 37 37 37 37 37 37 37 37 37 38 38 38 39 40 41 41 42 42 42 42 42 42 42 42 43 42 42 43 43 44 44 43 43
38 38 38 37 38 38 37 37 37 38 38 38 39 39 39 38 38 39 39 40 40 40 40 41 42 43 43 44 44 44 44 43 43 43 43 44 44 44 45 45 46 45 45
38 39 39 40 40 41 40 40 40 39 39 39 40 40 39 39 39 40 41 41 42 42 42 42 43 44 45 45 45 45 44 44 43 43 44 44 45 45 46 46 45 45 46
39 40 40 41 42 42 42 42 42 42 41 41 41 41 41 41 42 42 43 43 44 44 44 44 44 45 45 45 45 45 44 44 44 44 44 45 45 46 46 46 46 46 46
40 41 41 41 41 42 43 43 43 43 43 42 42 42 43 43 44 44 44 45 45 46 46 45 45 45 45 45 45 45 45 44 44 44 45 45 45 45 46 46 46 47 48
41 41 41 42 42 43 43 44 44 45 45 45 44 45 45 45 45 45 45 45 46 46 46 45 45 45 45 45 45 45 45 45 44 44 44 44 44 44 45 46 46 47 48
42 42 42 43 43 44 44 45 45 45 46 46 46 47 46 46 46 46 46 47 47 47 47 46 46 46 47 46 46 46 45 45 45 45 45 45 45 45 46 46 47 47 48
43 43 43 43 44 45 46 46 46 47 47 47 48 48 48 48 48 48 48 48 48 48 47 47 47 47 47 47 47 47 46 46 46 46 46 46 45 46 46 46 47 47 47
45 45 45 45 45 46 47 48 48 48 48 49 49 50 50 50 50 50 49 48 48 48 48 48 48 47 47 47 47 47 47 46 46 47 47 46 46 46 47 47 48 48 48
46 47 47 47 48 48 49 49 50 50 50 50 51 51 51 51 51 50 50 50 50 49 49 49 49 48 48 48 48 47 46 46 46 46 47 47 47 47 47 47 48 48 48
48 48 49 50 50 50 51 51 51 51 51 51 52 52 52 51 52 51 51 51 50 50 50 50 49 48 48 48 47 47 47 46 46 47 47 47 48 48 48 48 47 47 47
49 50 51 51 52 52 52 52 52 52 52 53 52 52 52 52 52 52 51 51 50 50 50 50 49 49 48 48 47 47 47 47 47 47 47 47 47 48 48 47 47 46 46
51 51 52 52 53 53 53 53 53 53 53 53 52 52 52 52 52 51 51 50 50 49 49 49 49 48 48 47 47 46 46 47 46 46 46 46 45 45 45 45 45 45 45
52 52 52 52 52 53 53 53 53 53 53 52 52 52 52 51 51 50 50 50 49 49 49 48 48 48 47 47 46 46 46 46 46 46 45 45 44 43 43 42 43 44 44
Wind_Direction
263 265 267 268 270 270 271 273 274 276 277 277 278 279 281 283 284 285 286 286 286 285 285 285 284 283 282 282 281 281 280 280 279 278 278 278 278 277 277 278 277 277 276
263 266 268 269 272 272 271 272 273 274 276 277 278 279 280 282 282 283 284 285 285 285 286 286 285 284 283 282 282 281 280 280 280 279 278 278 278 278 277 277 277 276 276
265 268 270 271 273 273 272 272 272 273 274 276 277 279 280 280 280 282 283 283 283 284 286 286 285 285 283 282 282 282 281 280 280 279 278 279 279 279 278 277 276 275 274
267 269 270 272 273 273 272 272 272 273 274 276 278 279 280 279 280 281 282 282 283 283 284 285 284 284 285 284 282 281 281 281 280 280 279 279 280 279 278 278 277 276 275
269 269 271 272 273 273 272 271 272 272 275 276 279 279 280 280 280 280 281 282 282 283 283 283 283 283 284 284 284 283 282 282 282 281 280 280 280 279 278 277 277 276 275
269 271 272 273 274 274 274 272 272 273 274 277 278 279 280 280 280 280 281 281 282 282 282 283 283 283 284 284 284 284 283 282 282 282 281 280 280 278 278 278 277 276 275
270 273 273 272 273 274 275 275 274 274 275 276 277 279 280 281 281 281 282 282 282 283 283 284 283 284 284 283 283 283 283 282 282 281 281 280 279 278 278 278 278 277 276
268 270 272 273 273 274 274 274 274 275 276 277 277 278 279 281 281 282 283 283 283 284 284 285 285 285 284 284 284 283 283 283 282 281 280 279 279 278 277 277 278 277 277
270 271 272 273 273 273 274 274 274 275 276 278 279 279 278 279 280 282 283 282 282 284 285 285 285 285 285 285 285 284 283 282 281 280 279 278 277 277 277 276 277 276 276
271 272 273 274 275 274 273 274 275 276 278 280 280 280 280 280 280 281 282 282 282 284 285 286 286 286 286 286 286 285 285 283 281 279 277 276 275 276 276 276 276 276 275
274 274 274 275 274 275 275 275 276 278 280 280 280 280 280 281 281 281 282 283 284 285 286 287 287 287 287 286 286 286 285 283 281 279 277 276 275 274 274 274 274 276 276
274 274 275 275 274 275 275 276 276 277 278 279 279 280 281 281 282 283 282 282 283 285 286 286 287 288 288 287 286 285 285 283 281 279 278 276 275 274 274 275 274 274 274
275 274 274 274 274 274 276 276 276 277 277 278 279 281 282 282 282 283 283 282 282 283 284 286 287 287 288 287 287 286 285 283 281 280 278 276 275 274 274 274 274 274 275
275 275 274 274 275 276 276 276 277 278 278 279 279 281 282 283 284 284 284 283 283 283 285 286 287 288 288 288 287 287 285 283 281 280 279 277 276 275 274 275 274 274 274
274 275 275 276 277 278 278 277 278 279 279 280 281 281 283 284 285 285 285 285 285 284 284 286 287 288 289 289 288 287 285 284 282 281 280 279 277 275 275 275 275 275 274
274 276 277 278 278 278 278 279 279 279 280 281 282 283 284 285 286 286 286 286 286 287 286 286 287 287 288 288 288 287 285 285 284 282 281 280 279 277 276 275 275 274 274
276 277 277 277 278 278 279 279 279 280 281 282 283 284 285 285 286 286 287 287 287 287 288 287 287 287 286 286 287 286 286 285 285 284 282 281 279 278 277 275 274 274 274
279 279 278 278 278 278 278 279 279 280 281 282 283 284 285 285 286 287 287 287 288 288 288 287 286 286 286 286 286 285 286 285 284 283 282 281 279 278 277 276 275 275 274
279 279 279 280 279 279 279 279 280 281 281 282 283 284 284 285 285 286 286 286 287 287 287 287 286 286 285 285 285 285 285 284 283 282 281 281 280 279 278 277 276 276 275
279 279 280 280 280 280 280 279 280 280 281 282 283 283 283 284 285 285 286 286 286 286 286 286 286 286 286 285 285 285 284 283 283 282 281 281 281 280 279 278 277 277 277
279 279 279 280 280 280 280 280 280 281 281 282 282 283 284 284 284 285 285 285 285 285 285 286 286 286 286 285 285 285 284 283 283 282 281 281 281 281 280 280 278 278 277
279 279 280 280 281 281 281 280 280 280 280 281 282 282 283 283 284 284 285 285 285 285 285 285 286 286 286 286 286 285 284 283 283 282 282 282 282 282 281 280 279 277 277
279 280 280 281 280 280 280 280 280 280 280 281 281 282 282 282 283 284 284 285 285 285 285 285 285 286 286 286 285 284 283 283 283 282 281 282 282 282 281 280 280 278 277
280 280 281 281 280 280 280 280 280 279 280 280 281 281 281 282 282 283 283 284 284 284 284 285 285 285 285 285 285 283 283 282 283 283 282 282 282 282 281 280 280 279 277
281 281 282 282 281 280 280 280 280 280 280 280 280 280 281 281 281 282 282 283 283 282 282 283 284 284 284 284 284 283 283 283 283 283 283 283 283 282 281 281 281 281 279
281 282 282 282 282 281 280 280 280 280 280 280 280 280 280 281 281 281 282 282 282 282 282 282 283 283 283 283 282 283 283 283 284 283 283 284 283 282 282 281 280 280 280
Height
5823 5823 5823 5822 5822 5822 5822 5821 5821 5820 5820 5819 5818 5817 5816 5815 5813 5812 5811 5809 5808 5806 5805 5803 5802 5801 5799 5798 5797 5795 5794 5793 5792 5791 5790 5789 5789 5788 5787 5786 5785 5785 5784
5818 5818 5818 5817 5817 5817 5816 5816 5815 5815 5814 5813 5812 5811 5810 5809 5807 5806 5805 5803 5802 5800 5798 5797 5795 5794 5792 5791 5789 5788 5787 5786 5784 5783 5782 5781 5781 5779 5779 5778 5777 5776 5776
5813 5812 5812 5812 5811 5811 5811 5810 5809 5808 5808 5807 5806 5805 5804 5802 5801 5799 5798 5796 5795 5793 5791 5790 5788 5787 5785 5783 5782 5781 5779 5778 5776 5775 5774 5773 5772 5771 5770 5769 5768 5768 5767
5807 5806 5806 5806 5805 5805 5804 5804 5803 5802 5801 5800 5799 5798 5797 5795 5794 5792 5790 5789 5787 5786 5784 5782 5781 5779 5778 5776 5774 5773 5771 5770 5768 5767 5765 5764 5763 5762 5761 5760 5759 5758 5758
5800 5800 5800 5799 5798 5798 5797 5796 5796 5795 5794 5793 5792 5791 5789 5788 5786 5785 5783 5781 5780 5778 5776 5775 5773 5771 5770 5768 5766 5765 5763 5761 5760 5759 5757 5756 5754 5753 5752 5751 5750 5749 5748
5794 5794 5793 5792 5792 5791 5790 5789 5788 5788 5787 5786 5785 5783 5782 5780 5778 5777 5775 5773 5772 5770 5768 5767 5765 5763 5762 5760 5758 5756 5755 5753 5751 5750 5748 5746 5745 5744 5743 5741 5740 5739 5738
5787 5787 5786 5786 5785 5784 5783 5782 5781 5780 5779 5778 5777 5776 5774 5772 5770 5768 5767 5765 5764 5762 5760 5758 5757 5755 5753 5751 5749 5747 5745 5744 5742 5740 5739 5737 5735 5734 5733 5732 5730 5729 5728
5780 5780 5779 5778 5777 5776 5776 5775 5774 5772 5771 5770 5769 5768 5766 5765 5762 5760 5759 5757 5755 5753 5752 5750 5748 5746 5744 5742 5740 5738 5736 5734 5732 5730 5729 5727 5726 5724 5723 5722 5721 5719 5718
5773 5772 5772 5771 5770 5769 5768 5767 5766 5765 5764 5762 5761 5759 5758 5757 5755 5753 5750 5748 5747 5745 5743 5741 5739 5737 5735 5732 5730 5728 5726 5724 5722 5720 5718 5717 5716 5714 5713 5712 5711 5709 5708
5765 5764 5764 5763 5762 5761 5760 5759 5758 5756 5755 5754 5752 5751 5749 5748 5746 5745 5743 5740 5738 5736 5734 5732 5730 5728 5725 5723 5720 5718 5716 5713 5711 5710 5708 5707 5705 5704 5703 5702 5700 5699 5698
5757 5756 5756 5755 5754 5753 5751 5750 5749 5748 5746 5745 5744 5742 5740 5739 5737 5736 5734 5732 5729 5727 5725 5723 5720 5718 5715 5713 5710 5708 5705 5703 5701 5699 5697 5696 5695 5694 5693 5692 5690 5689 5688
5749 5748 5747 5746 5745 5744 5743 5742 5740 5739 5738 5736 5735 5733 5731 5730 5728 5726 5724 5722 5720 5718 5715 5713 5710 5708 5705 5702 5700 5697 5695 5692 5690 5688 5686 5685 5684 5683 5682 5681 5680 5679 5678
5740 5739 5738 5737 5736 5735 5734 5733 5732 5730 5729 5727 5726 5724 5722 5720 5718 5716 5714 5712 5711 5709 5706 5703 5700 5697 5695 5692 5689 5687 5684 5681 5679 5677 5675 5674 5672 5671 5670 5669 5668 5667 5666
5731 5730 5729 5728 5727 5726 5725 5723 5722 5721 5719 5718 5716 5715 5713 5711 5708 5706 5704 5702 5700 5699 5696 5693 5690 5686 5684 5681 5678 5675 5673 5670 5668 5665 5664 5662 5661 5659 5659 5658 5657 5656 5655
5721 5720 5719 5718 5717 5716 5715 5713 5712 5711 5709 5708 5706 5704 5702 5700 5698 5696 5693 5691 5689 5687 5686 5683 5679 5676 5672 5669 5666 5663 5661 5658 5656 5654 5652 5650 5649 5647 5646 5645 5644 5643 5642
5712 5711 5709 5708 5707 5705 5704 5703 5702 5700 5699 5697 5695 5694 5692 5690 5687 5685 5682 5680 5677 5675 5673 5671 5668 5664 5661 5657 5654 5651 5648 5646 5644 5641 5640 5638 5636 5634 5633 5632 5631 5630 5629
5701 5700 5699 5697 5696 5694 5693 5692 5691 5689 5688 5686 5685 5683 5681 5678 5676 5673 5671 5668 5665 5663 5660 5658 5655 5652 5649 5646 5642 5639 5636 5634 5632 5629 5627 5625 5623 5622 5620 5619 5618 5617 5616
5691 5689 5688 5687 5685 5683 5682 5681 5680 5678 5677 5675 5673 5672 5669 5667 5664 5662 5659 5656 5653 5650 5647 5645 5642 5639 5636 5633 5630 5627 5624 5622 5619 5617 5614 5612 5611 5609 5607 5606 5605 5604 5602
5680 5678 5677 5675 5673 5672 5670 5669 5667 5666 5665 5663 5661 5659 5657 5654 5652 5649 5646 5643 5640 5637 5634 5632 5630 5626 5624 5620 5618 5615 5612 5609 5606 5604 5602 5600 5598 5596 5594 5593 5591 5590 5589
5668 5667 5665 5663 5662 5660 5658 5657 5655 5654 5652 5650 5648 5646 5644 5641 5639 5636 5633 5630 5627 5624 5621 5619 5616 5613 5610 5607 5604 5602 5599 5596 5594 5591 5589 5587 5585 5583 5581 5579 5578 5576 5575
5656 5654 5653 5651 5649 5648 5646 5644 5642 5640 5639 5637 5635 5633 5630 5628 5625 5622 5619 5616 5613 5611 5608 5605 5603 5600 5597 5594 5591 5588 5586 5583 5581 5578 5576 5573 5571 5569 5567 5565 5563 5562 5560
5644 5642 5640 5638 5636 5634 5632 5630 5628 5626 5624 5623 5621 5618 5616 5614 5611 5608 5605 5602 5599 5597 5594 5592 5589 5587 5584 5581 5577 5574 5572 5570 5568 5566 5562 5560 5557 5555 5553 5551 5549 5547 5545
5630 5628 5626 5624 5622 5620 5618 5616 5613 5611 5610 5608 5606 5604 5601 5599 5596 5594 5591 5588 5586 5583 5580 5578 5575 5573 5570 5567 5564 5561 5558 5556 5553 5551 5549 5547 5543 5541 5538 5536 5534 5532 5530
5617 5614 5612 5610 5608 5606 5603 5601 5598 5596 5595 5593 5591 5589 5586 5584 5582 5579 5577 5574 5572 5569 5566 5564 5561 5559 5556 5553 5550 5547 5544 5542 5539 5536 5534 5533 5529 5527 5524 5521 5519 5517 5516
5602 5600 5597 5595 5592 5590 5588 5585 5583 5581 5580 5578 5576 5573 5571 5569 5567 5564 5562 5560 5558 5555 5552 5549 5547 5544 5541 5539 5536 5533 5530 5528 5526 5523 5520 5518 5516 5513 5510 5508 5505 5503 5502
5587 5584 5582 5579 5577 5575 5572 5570 5567 5566 5564 5563 5561 5558 5556 5554 5552 5549 5547 5545 5543 5541 5538 5536 5533 5531 5528 5525 5522 5519 5516 5514 5511 5509 5507 5504 5502 5499 5498 5495 5492 5490 5488